Middleton, WI

1:24 AM CDT on September 22, 2019 (GMT -0500)
Middleton

Weather History for KC29 - August, 2019

Change the Weather History Date:

Saturday, August 17, 2019

  Actual Average (KMSN) Record (KMSN)
Temperature  
Mean Temperature 66 °F -  
Max Temperature 75 °F 80 °F 102 °F (1988)
Min Temperature 57 °F 57 °F 45 °F (1981)
Cooling Degree Days 1    
Growing Degree Days 16 (Base 50)    
Moisture  
Dew Point 18 °F    
Average Humidity 19    
Maximum Humidity 28    
Minimum Humidity 4    
Precipitation  
Precipitation 0.00 in - - ()
Sea Level Pressure  
Sea Level Pressure 29.89 in    
Wind  
Wind Speed 2 mph (SSE)    
Max Wind Speed 13 mph    
Max Gust Speed -    
Visibility 10 miles    
Events      
Averages and records for this station are not official NWS values.
T = Trace of Precipitation, MM = Missing Value Source: NWS Daily Summary

Daily Weather History Graph

Daily Weather History Graph

Search for Another Location

Airport or City:

Astronomy

Aug. 17, 2019 Rise Set
Actual Time 6:05 AM CDT 7:57 PM CDT
Civil Twilight 5:35 AM CDT 8:28 PM CDT
Nautical Twilight 4:57 AM CDT 9:05 PM CDT
Astronomical Twilight 4:17 AM CDT 9:45 PM CDT
Moon 9:23 PM CDT (8/17) 7:56 AM CDT (8/17)
Length of Visible Light 14h 53m
Length of Day
13h 52m
Waning Gibbous, 96% of the Moon is Illuminated
Aug 17
Waning Gibbous
Aug 23
Last Quarter
Aug 30
New
Sep 5
First Quarter
Sep 13
Full

Hourly Weather History & Observations

Time (CDT) Temp. Dew Point Humidity Pressure Visibility Wind Dir Wind Speed Gust Speed Precip Events Conditions
12:15 AM 62.6 °F 25.7 °F 25% 29.89 in 10.0 mi Calm Calm - N/A   Clear
12:35 AM 62.2 °F 27.1 °F 26% 29.89 in 10.0 mi Calm Calm - N/A   Clear
12:55 AM 61.9 °F 26.8 °F 26% 29.90 in 10.0 mi Calm Calm - N/A   Clear
1:15 AM 60.6 °F 25.2 °F 26% 29.90 in 10.0 mi Calm Calm - N/A   Clear
1:35 AM 61.9 °F 24.4 °F 24% 29.89 in 10.0 mi Calm Calm - N/A   Clear
1:55 AM 61.7 °F 20.8 °F 21% 29.90 in 10.0 mi Calm Calm - N/A   Clear
2:15 AM 60.1 °F 24.6 °F 26% 29.90 in 10.0 mi Calm Calm - N/A   Clear
2:35 AM 61.3 °F 26.8 °F 27% 29.90 in 10.0 mi Calm Calm - N/A   Clear
2:55 AM 60.4 °F 23.5 °F 24% 29.90 in 10.0 mi Calm Calm - N/A   Clear
3:15 AM 60.1 °F 22.8 °F 24% 29.89 in 10.0 mi Calm Calm - N/A   Clear
3:35 AM 59.5 °F 24.8 °F 26% 29.88 in 10.0 mi Calm Calm - N/A   Clear
3:55 AM 57.9 °F 23.0 °F 26% 29.85 in 10.0 mi Calm Calm - N/A   Clear
4:15 AM 58.8 °F 25.2 °F 28% 29.82 in 10.0 mi Calm Calm - N/A   Clear
4:35 AM 59.7 °F 25.9 °F 27% 29.86 in 10.0 mi SSW 4.6 mph - N/A   Clear
4:55 AM 62.6 °F 28.0 °F 27% 29.92 in 10.0 mi SW 8.1 mph - N/A   Clear
5:15 AM 62.1 °F 18.9 °F 19% 29.92 in 10.0 mi Calm Calm - N/A   Clear
5:35 AM 59.9 °F 21.4 °F 23% 29.93 in 10.0 mi Calm Calm - N/A   Clear
5:55 AM 58.8 °F 22.5 °F 25% 29.92 in 10.0 mi Calm Calm - N/A   Clear
6:15 AM 59.2 °F 24.3 °F 26% 29.92 in 10.0 mi Calm Calm - N/A   Clear
6:35 AM 59.4 °F 24.8 °F 27% 29.93 in 10.0 mi Calm Calm - N/A   Clear
6:55 AM 59.0 °F 24.6 °F 27% 29.92 in 10.0 mi Calm Calm - N/A   Clear
7:15 AM 61.2 °F 27.3 °F 28% 29.93 in 10.0 mi Calm Calm - N/A   Clear
7:35 AM 62.6 °F 27.1 °F 26% 29.92 in 10.0 mi Calm Calm - N/A   Clear
7:55 AM 64.0 °F 22.1 °F 20% 29.93 in 10.0 mi Calm Calm - N/A   Clear
8:15 AM 66.7 °F 13.5 °F 13% 29.93 in 10.0 mi Calm Calm - N/A   Clear
8:35 AM 68.5 °F 11.8 °F 11% 29.93 in 10.0 mi Calm Calm - N/A   Clear
8:55 AM 69.4 °F 4.6 °F 8% 29.93 in 10.0 mi Calm Calm - N/A   Clear
9:15 AM 70.9 °F -1.1 °F 6% 29.93 in 10.0 mi Calm Calm - N/A   Clear
9:35 AM 72.5 °F -16.4 °F 4% 29.94 in 10.0 mi Calm Calm - N/A   Clear
9:55 AM - - N/A% 29.94 in 10.0 mi Calm Calm - N/A   Clear
10:15 AM - - N/A% 29.93 in 10.0 mi Calm Calm - N/A   Clear
10:35 AM - - N/A% 29.92 in 10.0 mi Calm Calm - N/A   Clear
10:55 AM - - N/A% 29.90 in 10.0 mi NNE 3.5 mph - N/A   Clear
11:15 AM - - N/A% 29.91 in 10.0 mi Calm Calm - N/A   Clear
11:35 AM - - N/A% 29.92 in 10.0 mi Calm Calm - N/A   Clear
11:55 AM - - N/A% 29.91 in 10.0 mi ESE 5.8 mph - N/A   Clear
12:15 PM - - N/A% 29.91 in 10.0 mi ESE 6.9 mph - N/A   Clear
12:35 PM - - N/A% 29.90 in 10.0 mi East 5.8 mph - N/A   Clear
12:55 PM - - N/A% 29.90 in 10.0 mi East 4.6 mph - N/A   Clear
1:15 PM - - N/A% 29.90 in 10.0 mi ENE 4.6 mph - N/A   Clear
1:35 PM - - N/A% 29.88 in 10.0 mi East 8.1 mph - N/A   Clear
1:55 PM - - N/A% 29.87 in 10.0 mi ENE 6.9 mph - N/A   Clear
2:15 PM - - N/A% 29.88 in 10.0 mi ESE 8.1 mph - N/A   Clear
2:35 PM - - N/A% 29.88 in 10.0 mi ESE 5.8 mph - N/A   Clear
2:55 PM - - N/A% 29.88 in 10.0 mi East 6.9 mph - N/A   Clear
3:15 PM - - N/A% 29.87 in 10.0 mi SE 6.9 mph - N/A   Clear
3:35 PM - - N/A% 29.88 in 10.0 mi SE 8.1 mph - N/A   Clear
3:55 PM - - N/A% 29.87 in 10.0 mi South 4.6 mph - N/A   Scattered Clouds
4:15 PM - - N/A% 29.87 in 10.0 mi SSW 6.9 mph - N/A   Scattered Clouds
4:35 PM - - N/A% 29.87 in 10.0 mi South 8.1 mph - N/A   Mostly Cloudy
4:55 PM - - N/A% 29.87 in 10.0 mi South 12.7 mph - N/A   Mostly Cloudy
5:15 PM - - N/A% 29.86 in 10.0 mi SSW 8.1 mph - N/A   Scattered Clouds
5:35 PM - - N/A% 29.86 in 10.0 mi SSW 10.4 mph - N/A   Scattered Clouds
5:55 PM - - N/A% 29.86 in 10.0 mi South 6.9 mph - N/A   Clear
6:15 PM - - N/A% 29.86 in 10.0 mi South 8.1 mph - N/A   Clear
6:35 PM - - N/A% 29.86 in 10.0 mi South 4.6 mph - N/A   Clear
6:55 PM - - N/A% 29.85 in 10.0 mi SSW 4.6 mph - N/A   Clear
7:15 PM - - N/A% 29.85 in 10.0 mi Calm Calm - N/A   Clear
7:35 PM 75.4 °F -12.6 °F 4% 29.85 in 10.0 mi Calm Calm - N/A   Clear
7:55 PM 73.6 °F -3.3 °F 5% 29.85 in 10.0 mi Calm Calm - N/A   Clear
8:15 PM 72.0 °F 3.6 °F 7% 29.85 in 10.0 mi Calm Calm - N/A   Clear
8:35 PM 71.6 °F 10.6 °F 10% 29.85 in 10.0 mi Calm Calm - N/A   Clear
8:55 PM 69.8 °F 14.2 °F 12% 29.85 in 10.0 mi Calm Calm - N/A   Clear
9:15 PM 68.7 °F 16.7 °F 14% 29.85 in 10.0 mi Calm Calm - N/A   Clear
9:35 PM 69.1 °F 13.5 °F 12% 29.85 in 10.0 mi Calm Calm - N/A   Clear
9:55 PM 69.4 °F 16.9 °F 13% 29.85 in 10.0 mi Calm Calm - N/A   Clear
10:15 PM 71.2 °F 14.0 °F 11% 29.85 in 10.0 mi Calm Calm - N/A   Clear
10:35 PM 69.6 °F 17.4 °F 14% 29.85 in 10.0 mi Calm Calm - N/A   Clear
10:55 PM 69.3 °F 16.0 °F 13% 29.86 in 10.0 mi Calm Calm - N/A   Clear
11:15 PM 70.9 °F 24.8 °F 18% 29.86 in 10.0 mi Calm Calm - N/A   Scattered Clouds
11:55 PM 70.9 °F 25.9 °F 19% 29.87 in 7.0 mi Calm Calm - N/A   Scattered Clouds